Location: Arleux
(50.3632°N, 2.8721°E)
Time: 22:50:54
(UTC+00:00)

Cosmos 405 - Pass Details

Date: 15 December 2019
Orbit: 451 x 467 km, 81.3° (Epoch: 18 January)

Event Time Altitude Azimuth Distance (km) Brightness Sun altitude
Exits shadow 05:47:44 40° 309° (NW) 696 3.4 -17.0°
Maximum altitude 05:48:35 52° 263° (W) 586 3.1 -16.9°
Drops below altitude 10° 05:52:00 10° 186° (S) 1,604 5.8 -16.4°
Sets 05:54:05 0° 181° (S) 2,471 6.9 -16.1°
